Regional Weather Roundup
Issued by NWS

Home | Current Version | Previous Version | Text Only | Print | Product List | Glossary On
Versions: 1 2 3 4 5 6 7 8 9 10 11 12 13 14 15 16 17 18 19 20 21 22 23 24 25 26 27 28 29 30 31 32 33 34 35 36 37 38 39 40 41 42 43 44 45 46 47 48 49 50
000
ASUS44 KOUN 231210
RWROK

WEATHER ROUNDUP FOR OKLAHOMA
NATIONAL WEATHER SERVICE NORMAN OK
700 AM CDT THU OCT 23 2014

NOTE: "FAIR" INDICATES FEW OR NO CLOUDS BELOW 12,000 FEET WITH NO
      SIGNIFICANT WEATHER AND/OR OBSTRUCTIONS TO VISIBILITY.

OKZ001>007-009>012-014-015-017-231300-
NORTHWEST OKLAHOMA AND THE PANHANDLE

CITY           SKY/WX    TMP DP  RH WIND       PRES   REMARKS
GAGE           CLEAR     58  57  97 S7        30.07R FOG
6HR MIN TEMP:  58; 6HR MAX TEMP:  61;

ENID/WOODRING  CLOUDY    63  61  94 CALM      30.09R
$$

OKZ016-021>023-033>039-044-045-231300-
SOUTHWEST OKLAHOMA

CITY           SKY/WX    TMP DP  RH WIND       PRES   REMARKS
LAWTON/REGL    CLEAR     61  58  90 SE5       30.10S
6HR MIN TEMP:  61; 6HR MAX TEMP:  65;

LAWTON/FT SILL CLEAR     61  59  92 S8        30.09S
FREDERICK      CLOUDY    63  60  90 S6        30.07R
CLINTON        CLEAR     57  55  93 S7        30.10S FOG
HOBART         CLOUDY    61  60  97 S7        30.10R FOG
ALTUS AFB      PTCLDY    57  57 100 E2        30.09S FOG
$$

OKZ018>020-024>031-231300-
CENTRAL OKLAHOMA

CITY           SKY/WX    TMP DP  RH WIND       PRES   REMARKS
OKLAHOMA CITY  CLOUDY    61  56  83 S8        30.11R
6HR MIN TEMP:  61; 6HR MAX TEMP:  64;

OKC/WILEY POST CLOUDY    62  57  83 S12       30.10S
OKC/TINKER AFB CLOUDY    60  55  82 S12       30.11S
STILLWATER     CLOUDY    61  57  87 S9        30.10R
GUTHRIE        CLOUDY    61  57  87 S7        30.10R
$$

OKZ008-013-054>072-231300-
NORTHEAST OKLAHOMA

CITY           SKY/WX    TMP DP  RH WIND       PRES   REMARKS
TULSA          LGT RAIN  61  58  90 SE5       30.12R
6HR MIN TEMP:  61; 6HR MAX TEMP:  65; 6HR PCP:  0.04;

TULSA/JONES    CLOUDY    60  59  96 CALM      30.14R
PONCA CITY     MOCLDY    63  59  87 S9        30.09S
BARTLESVILLE   CLOUDY    60  59  96 S8        30.13S
MUSKOGEE       CLOUDY    57  52  83 SE6       30.15S
$$

OKZ032-040>043-046>053-073>077-231300-
SOUTH CENTRAL/SOUTHEAST OKLAHOMA

CITY           SKY/WX    TMP DP  RH WIND       PRES   REMARKS
ARDMORE/DWNTWN CLOUDY    59  55  88 SE5       30.13S
MCALESTER      CLOUDY    60  54  80 S3        30.15S
$$




USA.gov is the U.S. government's official web portal to all federal, state and local government web resources and services.